KC1SQ Weather Reports


Display with metric or nautical units.
time (UTC)temp
F
wind
direction
speed
MPH
gust
MPH
rain 1hr
in
rain 24hr
in
rain mn
in
humidity
%
barometer
mb
20260906150705 62 252 0.0 0.0 0.00 0.03 0.03 58 1015.4
20260906150423 62 215 0.0 0.0 0.00 0.03 0.03 56 1015.5
20260906145653 62 215 0.0 0.0 0.00 0.03 0.03 58 1015.4
20260906145147 62 215 0.0 0.0 0.00 0.03 0.03 62 1015.5
20260906144641 61 215 0.0 0.0 0.00 0.03 0.03 61 1015.5
20260906144135 61 215 0.0 0.0 0.00 0.03 0.03 61 1015.6
20260906143629 61 215 0.0 0.0 0.00 0.03 0.03 63 1015.5
20260906143124 61 159 0.0 0.0 0.00 0.03 0.03 63 1015.5
20260906142837 60 159 0.0 0.0 0.00 0.03 0.03 65 1015.6
20260906142110 60 355 0.0 1.0 0.00 0.03 0.03 66 1015.6
20260906141825 60 355 0.0 2.0 0.00 0.03 0.03 65 1015.7
20260906141058 60 355 0.0 2.0 0.00 0.03 0.03 66 1015.6
20260906140553 60 184 0.0 2.0 0.00 0.03 0.03 66 1015.5
20260906140526 60 184 0.0 1.0 0.00 0.03 0.03 67 1015.6
20260906135541 60 184 0.0 1.0 0.00 0.03 0.03 68 1015.6
20260906135035 59 184 0.0 3.0 0.00 0.03 0.03 67 1015.6
20260906134529 59 184 0.0 3.0 0.00 0.03 0.03 68 1015.5
20260906134023 59 184 0.0 2.0 0.00 0.03 0.03 69 1015.4
20260906133517 59 184 0.0 3.0 0.00 0.03 0.03 69 1015.4
20260906133011 59 184 0.0 3.0 0.00 0.03 0.03 69 1015.3
20260906132505 59 350 0.0 2.0 0.00 0.03 0.03 70 1015.4
20260906131959 59 350 0.0 2.0 0.00 0.03 0.03 70 1015.5
20260906131453 58 182 0.0 2.0 0.00 0.03 0.03 71 1015.4
20260906130947 58 182 0.0 3.0 0.00 0.03 0.03 71 1015.4
20260906130922 58 182 0.0 3.0 0.00 0.03 0.03 74 1015.4
20260906125935 58 196 0.0 2.0 0.00 0.03 0.03 77 1015.3
20260906125429 58 196 0.0 0.0 0.00 0.03 0.03 79 1015.4
20260906125156 58 196 0.0 0.0 0.00 0.03 0.03 79 1015.5
20260906124417 58 196 0.0 0.0 0.00 0.03 0.03 79 1015.5
20260906123911 57 196 0.0 0.0 0.00 0.03 0.03 79 1015.5
20260906123412 57 196 0.0 0.0 0.00 0.03 0.03 78 1015.7
20260906122908 57 196 0.0 0.0 0.00 0.03 0.03 78 1015.6
20260906122407 57 196 0.0 0.0 0.00 0.03 0.03 78 1015.7
20260906121905 57 196 0.0 0.0 0.00 0.03 0.03 78 1015.6
20260906121845 57 196 0.0 0.0 0.00 0.03 0.03 78 1015.5
20260906120905 57 196 0.0 0.0 0.00 0.03 0.03 78 1015.6
20260906120403 57 196 0.0 0.0 0.00 0.03 0.03 78 1015.5
20260906115901 57 196 0.0 0.0 0.00 0.03 0.03 78 1015.5
20260906115358 57 196 0.0 0.0 0.00 0.03 0.03 79 1015.4
20260906114857 57 196 0.0 0.0 0.00 0.03 0.03 79 1015.4
20260906114355 57 196 0.0 0.0 0.00 0.03 0.03 78 1015.3
20260906113854 56 196 0.0 0.0 0.00 0.03 0.03 78 1015.2
20260906113355 56 196 0.0 0.0 0.01 0.03 0.03 77 1015.2
20260906112856 56 196 0.0 0.0 0.01 0.03 0.03 77 1015.2
20260906112356 56 196 0.0 0.0 0.01 0.03 0.03 76 1015.1
20260906111852 56 196 0.0 0.0 0.01 0.03 0.03 76 1015.0
20260906111354 56 196 0.0 0.0 0.01 0.03 0.03 76 1015.0
20260906110852 56 196 0.0 0.0 0.02 0.03 0.03 75 1014.9
20260906110609 56 196 0.0 0.0 0.02 0.03 0.03 74 1014.9
20260906105851 56 196 0.0 0.0 0.02 0.03 0.03 72 1015.0
20260906105346 56 196 0.0 0.0 0.03 0.03 0.03 72 1014.9
20260906105058 56 196 0.0 0.0 0.03 0.03 0.03 71 1014.9
20260906104333 56 196 0.0 0.0 0.03 0.03 0.03 71 1014.8
20260906103827 56 196 0.0 0.0 0.03 0.03 0.03 70 1014.8
20260906103549 56 196 0.0 0.0 0.02 0.02 0.02 70 1014.9
20260906102821 56 196 0.0 0.0 0.02 0.02 0.02 69 1014.8
20260906102318 56 196 0.0 0.0 0.02 0.02 0.02 69 1014.9
20260906101817 56 196 0.0 0.0 0.02 0.02 0.02 69 1014.9
20260906101314 56 196 0.0 0.0 0.02 0.02 0.02 69 1014.8
20260906100814 57 196 0.0 0.0 0.01 0.01 0.01 69 1014.8
20260906100315 57 196 0.0 0.0 0.01 0.01 0.01 69 1014.8
20260906095815 57 196 0.0 0.0 0.01 0.01 0.01 69 1014.8
20260906095313 57 196 0.0 0.0 0.00 0.00 0.00 68 1014.7
20260906094813 57 196 0.0 0.0 0.00 0.00 0.00 68 1014.7
20260906094309 57 196 0.0 0.0 0.00 0.00 0.00 68 1014.5
20260906093811 57 196 0.0 0.0 0.00 0.00 0.00 68 1014.5
20260906093311 57 196 0.0 0.0 0.00 0.00 0.00 68 1014.5
20260906093035 57 196 0.0 0.0 0.00 0.00 0.00 67 1014.4
20260906092306 57 196 0.0 0.0 0.00 0.00 0.00 67 1014.3
20260906091806 57 196 0.0 0.0 0.00 0.00 0.00 67 1014.3
20260906091306 57 196 0.0 0.0 0.00 0.00 0.00 66 1014.2
20260906090807 57 196 0.0 0.0 0.00 0.00 0.00 66 1014.1
20260906090307 57 196 0.0 0.0 0.00 0.00 0.00 66 1014.2
20260906085806 57 196 0.0 0.0 0.00 0.00 0.00 66 1014.1
20260906085306 58 196 0.0 0.0 0.00 0.00 0.00 66 1014.1
20260906084803 58 196 0.0 0.0 0.00 0.00 0.00 66 1014.1
20260906084303 58 196 0.0 0.0 0.00 0.00 0.00 67 1014.0
20260906083804 58 196 0.0 0.0 0.00 0.00 0.00 67 1014.0
20260906083304 58 196 0.0 0.0 0.00 0.00 0.00 66 1013.8
20260906082805 58 196 0.0 0.0 0.00 0.00 0.00 66 1013.9
20260906082306 58 196 0.0 0.0 0.00 0.00 0.00 66 1013.9
20260906081805 59 196 0.0 0.0 0.00 0.00 0.00 66 1013.9
20260906081525 59 196 0.0 0.0 0.00 0.00 0.00 65 1013.8
20260906080800 59 196 0.0 0.0 0.00 0.00 0.00 65 1013.9
20260906080301 59 196 0.0 0.0 0.00 0.00 0.00 64 1013.8
20260906075800 59 196 0.0 0.0 0.00 0.00 0.00 64 1013.8
20260906075300 59 196 0.0 0.0 0.00 0.00 0.00 64 1013.8
20260906074800 59 196 0.0 0.0 0.00 0.00 0.00 65 1013.9
20260906074301 59 196 0.0 0.0 0.00 0.00 0.00 65 1013.9
20260906073801 59 196 0.0 0.0 0.00 0.00 0.00 65 1013.9
20260906073301 59 196 0.0 0.0 0.00 0.00 0.00 65 1013.8
20260906072759 59 196 0.0 0.0 0.00 0.00 0.00 65 1013.8
20260906072305 59 196 0.0 0.0 0.00 0.00 0.00 65 1013.8
20260906071801 59 196 0.0 0.0 0.00 0.00 0.00 65 1013.9
20260906071519 59 196 0.0 0.0 0.00 0.00 0.00 65 1013.8
20260906070800 59 196 0.0 0.0 0.00 0.00 0.00 65 1013.8
20260906070259 59 196 0.0 0.0 0.00 0.00 0.00 65 1013.9
20260906065800 59 196 0.0 0.0 0.00 0.00 0.00 65 1013.8
20260906065301 59 196 0.0 0.0 0.00 0.00 0.00 64 1013.8
20260906064759 60 196 0.0 0.0 0.00 0.00 0.00 64 1013.6
20260906064301 60 196 0.0 0.0 0.00 0.00 0.00 64 1013.6
20260906063759 60 196 0.0 0.0 0.00 0.00 0.00 65 1013.5
20260906063301 60 196 0.0 0.0 0.00 0.00 0.00 64 1013.5
20260906062759 60 196 0.0 0.0 0.00 0.00 0.00 64 1013.5
20260906062517 60 196 0.0 0.0 0.00 0.00 0.00 63 1013.6
20260906061755 60 196 0.0 0.0 0.00 0.00 0.00 63 1013.6
20260906061512 60 196 0.0 0.0 0.00 0.00 0.00 63 1013.5
20260906060757 60 196 0.0 0.0 0.00 0.00 0.00 63 1013.4
20260906060255 60 196 0.0 0.0 0.00 0.00 0.00 62 1013.5
20260906055753 60 196 0.0 0.0 0.00 0.00 0.00 62 1013.5
20260906055251 60 196 0.0 0.0 0.00 0.00 0.00 62 1013.6
20260906054749 61 196 0.0 0.0 0.00 0.00 0.00 62 1013.6
20260906054245 61 196 0.0 0.0 0.00 0.00 0.00 62 1013.6
20260906053743 61 196 0.0 0.0 0.00 0.00 0.00 61 1013.7
20260906053241 61 196 0.0 0.0 0.00 0.00 0.00 62 1013.8
20260906052742 61 196 0.0 0.0 0.00 0.00 0.00 62 1013.8
20260906052236 61 196 0.0 0.0 0.00 0.00 0.00 62 1013.7
20260906051730 61 196 0.0 0.0 0.00 0.00 0.00 62 1013.8
20260906051225 61 196 0.0 0.0 0.00 0.00 0.00 62 1013.8
20260906050718 61 196 0.0 0.0 0.00 0.00 0.00 61 1013.7
20260906050212 61 196 0.0 0.0 0.00 0.00 0.00 62 1013.8
20260906045706 61 196 0.0 0.0 0.00 0.00 0.00 62 1013.8
20260906045200 61 196 0.0 0.0 0.00 0.00 0.00 62 1013.8
20260906044920 61 196 0.0 0.0 0.00 0.00 0.00 61 1013.7
20260906044148 61 196 0.0 0.0 0.00 0.00 0.00 62 1013.6
20260906043906 61 196 0.0 0.0 0.00 0.00 0.00 62 1013.7
20260906043138 61 196 0.0 0.0 0.00 0.00 0.00 60 1013.6
20260906042855 61 196 0.0 0.0 0.00 0.00 0.00 60 1013.8
20260906042124 61 196 0.0 0.0 0.00 0.00 0.00 60 1013.8
20260906041838 61 196 0.0 0.0 0.00 0.00 0.00 60 1013.8
20260906041112 61 196 0.0 0.0 0.00 0.00 0.00 60 1013.7
20260906040607 61 196 0.0 0.0 0.00 0.00 0.00 59 1013.8
20260906040108 61 196 0.0 0.0 0.00 0.00 0.00 60 1013.8
20260906035607 61 196 0.0 0.0 0.00 0.00 0.00 60 1013.7
20260906035106 61 196 0.0 0.0 0.00 0.00 0.00 60 1013.6
20260906034607 61 196 0.0 0.0 0.00 0.00 0.00 60 1013.7
20260906034106 62 196 0.0 0.0 0.00 0.00 0.00 59 1013.6
20260906033606 62 196 0.0 0.0 0.00 0.00 0.00 60 1013.7
20260906033105 62 196 0.0 0.0 0.00 0.00 0.00 60 1013.6
20260906032605 62 196 0.0 0.0 0.00 0.00 0.00 59 1013.6
20260906032324 62 196 0.0 0.0 0.00 0.00 0.00 60 1013.5
20260906031604 62 196 0.0 0.0 0.00 0.00 0.00 60 1013.6
20260906031322 62 196 0.0 0.0 0.00 0.00 0.00 60 1013.5
20260906030821 62 196 0.0 0.0 0.00 0.00 0.00 59 1013.6
20260906025602 63 196 0.0 0.0 0.00 0.00 0.00 59 1013.5
20260906025055 63 196 0.0 0.0 0.00 0.00 0.00 59 1013.5
20260906024548 63 196 0.0 0.0 0.00 0.00 0.00 59 1013.4
20260906024042 63 196 0.0 0.0 0.00 0.00 0.00 58 1013.3
20260906023536 63 196 0.0 0.0 0.00 0.00 0.00 58 1013.3
20260906023030 63 196 0.0 0.0 0.00 0.00 0.00 58 1013.3
20260906023003 63 196 0.0 0.0 0.00 0.00 0.00 59 1013.2
20260906022019 63 196 0.0 0.0 0.00 0.00 0.00 59 1013.3
20260906021734 63 196 0.0 0.0 0.00 0.00 0.00 58 1013.2
20260906021228 63 203 0.0 0.0 0.00 0.00 0.00 58 1013.2
20260906020725 64 203 0.0 0.0 0.00 0.00 0.00 58 1013.2
20260906020214 64 203 0.0 0.0 0.00 0.00 0.00 57 1013.2
20260906015448 64 203 0.0 0.0 0.00 0.00 0.00 58 1013.2
20260906014942 64 203 0.0 0.0 0.00 0.00 0.00 58 1013.1
20260906014436 64 203 0.0 0.0 0.00 0.00 0.00 57 1013.1
20260906013930 64 203 0.0 0.0 0.00 0.00 0.00 57 1013.2
20260906013424 64 203 0.0 0.0 0.00 0.00 0.00 58 1013.2
20260906013141 64 203 0.0 0.0 0.00 0.00 0.00 58 1013.1
20260906012412 65 203 0.0 0.0 0.00 0.00 0.00 57 1013.0
20260906012136 65 203 0.0 0.0 0.00 0.00 0.00 57 1013.1
20260906011400 65 203 0.0 0.0 0.00 0.00 0.00 57 1013.0
20260906010853 65 203 0.0 0.0 0.00 0.00 0.00 56 1013.0
20260906010348 65 203 0.0 0.0 0.00 0.00 0.00 56 1013.1
20260906005842 65 203 0.0 0.0 0.00 0.00 0.00 57 1013.0
20260906005336 65 207 0.0 0.0 0.00 0.00 0.00 57 1013.1
20260906004830 65 207 0.0 0.0 0.00 0.00 0.00 59 1013.1
20260906004323 65 207 0.0 0.0 0.00 0.00 0.00 58 1013.0
20260906003818 66 207 0.0 0.0 0.00 0.00 0.00 58 1013.0
20260906003533 66 207 0.0 0.0 0.00 0.00 0.00 57 1012.8
20260906002807 66 207 0.0 0.0 0.00 0.00 0.00 57 1012.8
20260906002300 66 207 0.0 0.0 0.00 0.00 0.00 58 1012.8
20260906001754 66 207 0.0 0.0 0.00 0.00 0.00 57 1012.8
20260906001248 66 207 0.0 0.0 0.00 0.00 0.00 56 1012.7
20260906000742 66 207 0.0 0.0 0.00 0.00 0.00 56 1012.8
20260906000457 66 207 0.0 0.0 0.00 0.00 0.00 56 1012.8
20260905235730 66 207 0.0 0.0 0.00 0.00 0.00 56 1012.7
20260905235224 66 207 0.0 0.0 0.00 0.00 0.00 56 1012.6
20260905234939 66 207 0.0 0.0 0.00 0.00 0.00 56 1012.6
20260905234212 66 207 0.0 0.0 0.00 0.00 0.00 55 1012.5
20260905233936 67 207 0.0 0.0 0.00 0.00 0.00 55 1012.5
20260905233200 67 207 0.0 0.0 0.00 0.00 0.00 54 1012.5
20260905232654 67 207 0.0 0.0 0.00 0.00 0.00 55 1012.5
20260905232148 67 207 0.0 0.0 0.00 0.00 0.00 55 1012.4
20260905231906 67 207 0.0 0.0 0.00 0.00 0.00 55 1012.5
20260905231136 67 207 0.0 0.0 0.00 0.00 0.00 55 1012.4
20260905230629 67 207 0.0 0.0 0.00 0.00 0.00 55 1012.3
20260905230124 67 207 0.0 0.0 0.00 0.00 0.00 56 1012.2
20260905225618 67 207 0.0 0.0 0.00 0.00 0.00 56 1012.2
20260905225112 67 207 0.0 0.0 0.00 0.00 0.00 56 1012.2
20260905225056 67 207 0.0 0.0 0.00 0.00 0.00 55 1012.2
20260905224100 67 207 0.0 0.0 0.00 0.00 0.00 56 1012.2
20260905223553 68 207 0.0 0.0 0.00 0.00 0.00 55 1012.1
20260905223047 68 207 0.0 0.0 0.00 0.00 0.00 54 1012.1
20260905222542 68 207 0.0 0.0 0.00 0.00 0.00 55 1012.1
20260905222300 68 207 0.0 0.0 0.00 0.00 0.00 55 1012.1
20260905221530 68 207 0.0 0.0 0.00 0.00 0.00 54 1012.1
20260905221024 69 207 0.0 0.0 0.00 0.00 0.00 54 1012.1
20260905220524 69 207 0.0 0.0 0.00 0.00 0.00 53 1012.0
20260905220021 69 207 0.0 0.0 0.00 0.00 0.00 54 1011.9
20260905215521 69 207 0.0 0.0 0.00 0.00 0.00 53 1011.8
20260905215023 69 207 0.0 0.0 0.00 0.00 0.00 52 1011.7
20260905214519 69 207 0.0 0.0 0.00 0.00 0.00 53 1011.6
20260905214018 69 207 0.0 0.0 0.00 0.00 0.00 52 1011.5
20260905213518 69 207 0.0 0.0 0.00 0.00 0.00 52 1011.5
20260905213018 69 207 0.0 0.0 0.00 0.00 0.00 51 1011.4
20260905212516 70 207 0.0 0.0 0.00 0.00 0.00 51 1011.3
20260905212014 70 207 0.0 0.0 0.00 0.00 0.00 52 1011.3
20260905211511 70 207 0.0 0.0 0.00 0.00 0.00 53 1011.3
20260905211009 70 207 0.0 0.0 0.00 0.00 0.00 52 1011.3
20260905210507 70 207 0.0 0.0 0.00 0.00 0.00 52 1011.2
20260905210005 70 207 0.0 0.0 0.00 0.00 0.00 53 1011.2
20260905205505 70 207 0.0 0.0 0.00 0.00 0.00 52 1011.1
20260905205006 70 207 0.0 0.0 0.00 0.00 0.00 54 1011.1
20260905204503 70 207 0.0 0.0 0.00 0.00 0.00 53 1011.1
20260905204004 70 207 0.0 0.0 0.00 0.00 0.00 54 1011.1
20260905203722 70 207 0.0 0.0 0.00 0.00 0.00 53 1011.1
20260905203228 70 207 0.0 0.0 0.00 0.00 0.00 52 1011.0
20260905202458 71 207 0.0 0.0 0.00 0.00 0.00 51 1011.0
20260905201952 71 207 0.0 0.0 0.00 0.00 0.00 52 1011.1
20260905201446 71 207 0.0 0.0 0.00 0.00 0.00 51 1010.9
20260905200940 72 207 0.0 0.0 0.00 0.00 0.00 50 1010.9
20260905200434 72 207 0.0 0.0 0.00 0.00 0.00 51 1011.0
20260905195928 72 207 0.0 0.0 0.00 0.00 0.00 51 1011.0
20260905195429 73 207 0.0 0.0 0.00 0.00 0.00 50 1010.9
20260905194929 73 207 0.0 0.0 0.00 0.00 0.00 50 1010.8
20260905194653 73 191 0.0 0.0 0.00 0.00 0.00 49 1010.9
20260905193926 73 191 0.0 0.0 0.00 0.00 0.00 50 1010.8
20260905193427 73 191 0.0 0.0 0.00 0.00 0.00 50 1010.8
20260905192925 73 191 0.0 0.0 0.00 0.00 0.00 48 1010.9
20260905192426 73 191 0.0 0.0 0.00 0.00 0.00 49 1010.9
20260905191925 74 191 0.0 0.0 0.00 0.00 0.00 48 1010.9
20260905191649 74 191 0.0 0.0 0.00 0.00 0.00 48 1010.8
20260905190926 74 190 0.0 0.0 0.00 0.00 0.00 47 1010.8
20260905190421 74 198 0.0 0.0 0.00 0.00 0.00 47 1010.7
20260905185921 75 198 0.0 0.0 0.00 0.00 0.00 48 1010.8
20260905185421 75 198 0.0 0.0 0.00 0.00 0.00 48 1010.7
20260905184921 74 198 0.0 0.0 0.00 0.00 0.00 51 1010.7
20260905184422 73 197 0.0 0.0 0.00 0.00 0.00 50 1010.7
20260905183920 72 197 0.0 0.0 0.00 0.00 0.00 52 1010.7
20260905183421 72 197 0.0 0.0 0.00 0.00 0.00 52 1010.7
20260905182921 71 199 0.0 0.0 0.00 0.00 0.00 55 1010.8
20260905182422 71 199 0.0 0.0 0.00 0.00 0.00 53 1011.0
20260905181917 70 198 0.0 0.0 0.00 0.00 0.00 52 1011.0
20260905181637 70 198 0.0 1.0 0.00 0.00 0.00 53 1011.1
20260905181140 70 198 0.0 1.0 0.00 0.00 0.00 54 1011.0
20260905180417 71 194 0.0 0.0 0.00 0.00 0.00 53 1011.0
20260905175918 71 194 0.0 0.0 0.00 0.00 0.00 54 1011.0
20260905175416 71 198 0.0 0.0 0.00 0.00 0.00 54 1011.1
20260905174918 71 198 0.0 0.0 0.00 0.00 0.00 55 1011.0
20260905174416 70 198 0.0 0.0 0.00 0.00 0.00 57 1011.0
20260905174136 70 198 0.0 0.0 0.00 0.00 0.00 55 1011.0
20260905173636 70 198 0.0 0.0 0.00 0.00 0.00 55 1011.1
20260905173139 69 197 0.0 0.0 0.00 0.00 0.00 58 1011.0
20260905172414 68 197 0.0 0.0 0.00 0.00 0.00 58 1011.0
20260905172133 68 197 0.0 0.0 0.00 0.00 0.00 59 1011.0
20260905171412 68 198 0.0 0.0 0.00 0.00 0.00 59 1011.0
20260905170910 68 198 0.0 0.0 0.00 0.00 0.00 60 1010.9
20260905170410 68 198 0.0 0.0 0.00 0.00 0.00 60 1010.9
20260905165908 68 198 0.0 0.0 0.00 0.00 0.00 60 1010.9
20260905165409 68 198 0.0 0.0 0.00 0.00 0.00 61 1011.0
20260905164907 67 198 0.0 0.0 0.00 0.00 0.00 61 1010.9
20260905164406 67 198 0.0 0.0 0.00 0.00 0.00 61 1011.0
20260905163904 67 198 0.0 0.0 0.00 0.00 0.00 60 1011.1
20260905163622 67 198 0.0 0.0 0.00 0.00 0.00 60 1011.1
20260905162900 67 198 0.0 0.0 0.00 0.00 0.00 60 1011.1
20260905162357 67 198 0.0 0.0 0.00 0.00 0.00 60 1011.1
20260905161856 68 198 0.0 0.0 0.00 0.00 0.00 62 1011.1
20260905161354 68 198 0.0 0.0 0.00 0.00 0.00 62 1011.1
20260905160855 67 198 0.0 0.0 0.00 0.00 0.00 63 1011.0
20260905160350 67 198 0.0 0.0 0.00 0.00 0.00 63 1011.0
20260905155842 67 198 0.0 0.0 0.00 0.00 0.00 62 1011.0
20260905155337 68 198 0.0 0.0 0.00 0.00 0.00 62 1011.1
20260905154831 68 198 0.0 0.0 0.00 0.00 0.00 62 1011.0
20260905154325 68 198 0.0 0.0 0.00 0.00 0.00 61 1011.0
20260905153819 67 198 0.0 0.0 0.00 0.00 0.00 61 1010.9
20260905153313 68 198 0.0 0.0 0.00 0.00 0.00 61 1010.9
20260905153035 68 198 0.0 0.0 0.00 0.00 0.00 61 1010.9
20260905152301 68 198 0.0 0.0 0.00 0.00 0.00 61 1010.8
20260905151755 68 198 0.0 0.0 0.00 0.00 0.00 61 1010.8
20260905151249 68 198 0.0 0.0 0.00 0.00 0.00 61 1010.8